Home   Weather   Willich   Past weeks

Flag for Germany Past Weather in Willich, North Rhine-Westphalia, Germany — Yesterday and Last 2 Weeks

Now
46 °F

Clear.


Feels Like: 45 °F
Forecast: 40 / 47 °F
Wind: 3 mph from North

Location: Monchengladbach Airport

Current Time: Dec 9, 2016 at 10:23:34 pm

Latest Report: Dec 9, 2016 at 8:20 pm


Visibility: 10 mi

Pressure: 30.33 "Hg

Humidity: 76%

Dew Point: 39 °F

Location of WillichLocation

Past Weather in Willich — Graph

°F

Willich Temperature Yesterday

Maximum temperature yesterday: 45 °F (at 1:20 pm)
Minimum temperature yesterday: 34 °F (at 6:50 pm)
Average temperature yesterday: 40 °F

High & Low Weather Summary for the Past Weeks

 TemperatureHumidityPressure
High55 °F (Dec 9, 3:50 pm)100% (Nov 27, 9:20 am)30.60 "Hg (Nov 27, 9:20 am)
Low19 °F (Nov 29, 7:50 am)52% (Nov 30, 1:20 pm)30.07 "Hg (Nov 26, 2:50 pm)
Average38 °F81%30.33 "Hg
* Reported Nov 24 8:20 pm — Dec 9 8:20 pm, Willich, Weather by CustomWeather, © 2016

Note: Actual official high and low records may vary slightly from our data, if they occured in-between our weather recording intervals... More about our weather records

Advertising

Willich Weather History for the Previous 24 Hours

Scroll right to see more
 ConditionsComfort  
Time TempWeatherWind HumidityBarometerVisibility
8:20 pm
Fri, Dec 9
46 °FClear.3 mph76%30.33 "Hg10 mi
7:50 pm46 °FClear.1 mph76%30.33 "Hg10 mi
7:20 pm46 °FPassing clouds.5 mph76%30.33 "HgN/A
6:50 pm46 °FPassing clouds.5 mph76%30.33 "HgN/A
6:20 pm50 °FPassing clouds.5 mph71%30.33 "HgN/A
5:50 pm52 °FPassing clouds.6 mph67%30.33 "HgN/A
5:20 pm50 °FClear.5 mph71%30.36 "Hg10 mi
4:50 pm52 °FPassing clouds.3 mph72%30.36 "HgN/A
4:20 pm54 °FPassing clouds.5 mph67%30.36 "HgN/A
3:50 pm55 °FPassing clouds.3 mph63%30.36 "HgN/A
3:20 pm54 °FPassing clouds.6 mph67%30.36 "HgN/A
2:50 pm54 °FPassing clouds.5 mph67%30.36 "HgN/A
2:20 pm54 °FPartly cloudy.7 mph67%30.36 "HgN/A
1:50 pm54 °FPassing clouds.6 mph67%30.36 "HgN/A
1:20 pm52 °FPassing clouds.5 mph77%30.36 "HgN/A
12:50 pm50 °FPassing clouds.3 mph82%30.39 "HgN/A
12:20 pm50 °FPassing clouds.5 mph88%30.39 "Hg4 mi
11:50 am48 °FFog.3 mph87%30.39 "Hg3 mi
11:20 am48 °FFog.3 mph87%30.39 "Hg3 mi
10:50 am48 °FFog.3 mph87%30.39 "Hg3 mi
10:20 am48 °FFog.6 mph87%30.39 "Hg3 mi
9:50 am48 °FLow clouds.5 mph87%30.39 "Hg4 mi
9:20 am48 °FFog.6 mph82%30.39 "Hg3 mi
8:50 am48 °FPassing clouds.7 mph82%30.39 "Hg4 mi
8:20 am46 °FPassing clouds.5 mph87%30.39 "Hg6 mi
7:50 am48 °FPassing clouds.7 mph82%30.39 "HgN/A
Weather by CustomWeather, © 2016

See weather overviewHow to use our weather pages